Weather History for Baltimore Martin, MD

Change the Weather History Date:

Wednesday, April 3, 2013

  Actual Average Record
Temperature  
Mean Temperature 40 °F -  
Max Temperature 50 °F 56 °F 73 °F (2002)
Min Temperature 30 °F 39 °F 30 °F (2001)
Degree Days  
Heating Degree Days 25    
Moisture  
Dew Point 17 °F    
Average Humidity 46    
Maximum Humidity 64    
Minimum Humidity 22    
Precipitation  
Precipitation 0.00 in - - ()
Sea Level Pressure  
Sea Level Pressure 30.26 in    
Wind  
Wind Speed 6 mph (West)    
Max Wind Speed 23 mph    
Max Gust Speed 29 mph    
Visibility 10 miles    
Events      
Averages and records for this station are not official NWS values.
T = Trace of Precipitation, MM = Missing Value Source: NWS Daily Summary

Daily Weather History Graph

Daily Weather History Graph

Search for Another Location

Airport:

Trip Planner

Search our weather history database for the weather conditions in past years. The results will help you decide how hot, cold, wet, or windy it might be!

Date:

Astronomy

Apr. 03, 2013 Rise Set
Actual Time 6:46 AM EDT 7:31 PM EDT
Civil Twilight 6:19 AM EDT 7:58 PM EDT
Nautical Twilight 5:47 AM EDT 8:31 PM EDT
Astronomical Twilight 5:14 AM EDT 9:04 PM EDT
Moon 2:23 AM EDT (4/3) 12:43 PM EDT (4/3)
Length of Visible Light 13h 39m
Length of Day
12h 45m
Last Quarter, 45% of the Moon is Illuminated
Apr 3
Last Quarter
Apr 10
New
Apr 18
First Quarter
Apr 25
Full
May 2
Last Quarter

Hourly Weather History & Observations

Time (EDT) Temp. Windchill Dew Point Humidity Pressure Visibility Wind Dir Wind Speed Gust Speed Precip Events Conditions
12:06 AM 32.0 °F 25.6 °F 17.6 °F 55% 30.18 in 10.0 mi WNW 6.9 mph - N/A   Clear
12:27 AM 33.8 °F 27.7 °F 17.6 °F 52% 30.19 in 10.0 mi WNW 6.9 mph - N/A   Clear
12:48 AM 33.8 °F 29.6 °F 17.6 °F 52% 30.19 in 10.0 mi West 4.6 mph - N/A   Clear
1:06 AM 33.8 °F - 15.8 °F 48% 30.20 in 10.0 mi Calm Calm - N/A   Clear
1:27 AM 33.8 °F - 14.0 °F 44% 30.20 in 10.0 mi Calm Calm - N/A   Clear
2:06 AM 32.0 °F - 17.6 °F 55% 30.21 in 10.0 mi Calm Calm - N/A   Clear
2:27 AM 33.8 °F - 17.6 °F 52% 30.20 in 10.0 mi Calm Calm - N/A   Clear
2:48 AM 32.0 °F - 17.6 °F 55% 30.20 in 10.0 mi Calm Calm - N/A   Clear
3:06 AM 32.0 °F 28.7 °F 19.4 °F 60% 30.21 in 10.0 mi SSW 3.5 mph - N/A   Clear
3:27 AM 33.8 °F 30.8 °F 19.4 °F 56% 30.21 in 10.0 mi SW 3.5 mph - N/A   Clear
3:48 AM 32.0 °F 28.7 °F 19.4 °F 60% 30.21 in 10.0 mi SW 3.5 mph - N/A   Clear
4:06 AM 32.0 °F 28.7 °F 19.4 °F 60% 30.21 in 10.0 mi SW 3.5 mph - N/A   Clear
4:27 AM 32.0 °F - 19.4 °F 60% 30.21 in 10.0 mi Calm Calm - N/A   Clear
4:48 AM 30.2 °F - 19.4 °F 64% 30.22 in 10.0 mi Calm Calm - N/A   Clear
5:03 AM 32.0 °F - 19.4 °F 60% 30.23 in 10.0 mi Calm Calm - N/A   Clear
5:27 AM 32.0 °F - 19.4 °F 60% 30.23 in 10.0 mi Calm Calm - N/A   Clear
5:33 AM 32.0 °F 28.7 °F 19.4 °F 60% 30.23 in 10.0 mi SW 3.5 mph - N/A   Clear
5:55 AM 32.0 °F - 17.6 °F 55% 30.23 in 10.0 mi Calm Calm - N/A   Clear
6:50 AM 32.0 °F 28.7 °F 17.6 °F 55% 30.25 in 10.0 mi WSW 3.5 mph - N/A   Clear
7:45 AM 33.8 °F - 21.2 °F 60% - 10.0 mi Calm Calm - N/A   Clear
8:45 AM 39.2 °F 33.0 °F 17.6 °F 42% 30.26 in 10.0 mi West 9.2 mph - N/A   Clear
9:45 AM 44.6 °F 37.4 °F 17.6 °F 34% 3.26 in 10.0 mi West 16.1 mph - N/A   Clear
10:50 AM 46.4 °F 38.7 °F 15.8 °F 29% 30.27 in 10.0 mi West 20.7 mph 26.5 mph N/A   Partly Cloudy
11:45 AM 46.4 °F 40.4 °F 17.6 °F 32% 30.27 in 10.0 mi West 13.8 mph 23.0 mph N/A   Partly Cloudy
12:45 PM 48.2 °F - 15.8 °F 27% 30.24 in 10.0 mi West 18.4 mph 27.6 mph N/A   Partly Cloudy
1:55 PM 50.0 °F - 15.8 °F 26% 30.21 in 10.0 mi West 20.7 mph 25.3 mph N/A   Partly Cloudy
2:45 PM 50.0 °F - 15.8 °F 26% 30.20 in 10.0 mi WNW 20.7 mph 27.6 mph N/A   Partly Cloudy
3:55 PM 50.0 °F - 15.8 °F 26% 30.21 in 10.0 mi West 23.0 mph 28.8 mph N/A   Scattered Clouds
4:45 PM 50.0 °F - 14.0 °F 24% 30.23 in 10.0 mi WNW 18.4 mph 28.8 mph N/A   Scattered Clouds
5:45 PM 48.2 °F - 12.2 °F 24% 30.28 in 10.0 mi WNW 17.3 mph 23.0 mph N/A   Partly Cloudy
6:45 PM 46.4 °F 39.2 °F 8.6 °F 22% 30.32 in 10.0 mi West 18.4 mph 28.8 mph N/A   Scattered Clouds
8:55 PM 41.0 °F 32.8 °F 15.8 °F 36% 30.36 in 10.0 mi NW 16.1 mph - N/A   Scattered Clouds
9:45 PM 37.4 °F 29.8 °F 17.6 °F 45% 30.38 in 10.0 mi WNW 11.5 mph - N/A   Scattered Clouds
10:09 PM 35.6 °F 27.1 °F 17.6 °F 48% 30.38 in 10.0 mi WNW 12.7 mph - N/A   Clear
10:30 PM 35.6 °F 27.5 °F 17.6 °F 48% 30.39 in 10.0 mi WNW 11.5 mph - N/A   Clear
10:48 PM 35.6 °F 28.6 °F 15.8 °F 44% 30.38 in 10.0 mi WNW 9.2 mph - N/A   Clear
11:09 PM 35.6 °F 29.9 °F 17.6 °F 48% 30.38 in 10.0 mi WNW 6.9 mph - N/A   Clear
11:30 PM 33.8 °F 28.6 °F 17.6 °F 52% 30.38 in 10.0 mi WNW 5.8 mph - N/A   Clear
11:48 PM 33.8 °F 30.8 °F 15.8 °F 48% 30.38 in 10.0 mi WNW 3.5 mph - N/A   Clear